Precipitable_Water
0.43 0.34 0.30 0.36 0.38 0.38 0.36 0.34 0.33 0.38 0.41 0.37 0.35 0.34 0.38 0.40 0.40 0.41 0.43 0.43 0.43 0.43 0.45 0.46 0.47 0.48 0.49 0.53 0.57 0.62 0.66 0.69 0.73 0.72 0.70 0.69 0.66 0.68 0.69 0.70 0.72 0.73 0.76 0.79
0.37 0.32 0.40 0.41 0.40 0.37 0.35 0.33 0.32 0.38 0.42 0.38 0.36 0.34 0.38 0.40 0.40 0.42 0.42 0.42 0.42 0.41 0.42 0.44 0.44 0.45 0.46 0.48 0.53 0.56 0.60 0.65 0.68 0.70 0.67 0.68 0.65 0.62 0.63 0.63 0.62 0.63 0.65 0.66
0.35 0.38 0.45 0.41 0.38 0.37 0.38 0.36 0.37 0.37 0.41 0.41 0.37 0.32 0.35 0.40 0.43 0.44 0.45 0.45 0.44 0.41 0.41 0.42 0.43 0.44 0.44 0.44 0.46 0.50 0.55 0.57 0.59 0.60 0.61 0.60 0.60 0.56 0.50 0.46 0.44 0.45 0.46 0.47
0.40 0.45 0.45 0.45 0.43 0.44 0.36 0.45 0.43 0.40 0.36 0.28 0.38 0.23 0.31 0.34 0.35 0.38 0.40 0.41 0.41 0.42 0.43 0.44 0.43 0.42 0.43 0.43 0.45 0.46 0.47 0.50 0.52 0.54 0.51 0.47 0.43 0.40 0.42 0.42 0.42 0.42 0.42 0.42
0.46 0.48 0.47 0.45 0.47 0.50 0.44 0.51 0.45 0.42 0.38 0.35 0.34 0.28 0.28 0.34 0.31 0.35 0.39 0.41 0.42 0.43 0.43 0.43 0.42 0.42 0.43 0.42 0.42 0.43 0.43 0.43 0.44 0.45 0.44 0.43 0.42 0.42 0.43 0.42 0.41 0.39 0.39 0.38
0.51 0.57 0.54 0.52 0.54 0.52 0.52 0.46 0.44 0.42 0.37 0.25 0.30 0.28 0.25 0.29 0.32 0.36 0.40 0.42 0.43 0.43 0.43 0.43 0.42 0.42 0.41 0.40 0.41 0.40 0.41 0.41 0.41 0.42 0.42 0.41 0.41 0.40 0.38 0.37 0.36 0.34 0.32 0.30
0.51 0.51 0.56 0.56 0.49 0.51 0.47 0.41 0.31 0.27 0.25 0.22 0.31 0.27 0.26 0.33 0.37 0.38 0.39 0.40 0.41 0.42 0.42 0.41 0.40 0.40 0.39 0.38 0.38 0.37 0.38 0.39 0.40 0.40 0.40 0.39 0.39 0.38 0.35 0.33 0.32 0.30 0.27 0.25
0.40 0.37 0.50 0.55 0.48 0.44 0.43 0.41 0.31 0.22 0.22 0.24 0.32 0.23 0.27 0.37 0.40 0.42 0.43 0.42 0.43 0.42 0.42 0.41 0.40 0.39 0.39 0.38 0.36 0.37 0.38 0.38 0.39 0.38 0.37 0.36 0.33 0.31 0.30 0.28 0.26 0.23 0.21 0.20
0.41 0.40 0.53 0.53 0.54 0.50 0.42 0.37 0.44 0.33 0.33 0.26 0.27 0.30 0.36 0.39 0.39 0.41 0.41 0.42 0.41 0.41 0.41 0.40 0.40 0.37 0.36 0.37 0.39 0.39 0.40 0.39 0.39 0.37 0.34 0.33 0.31 0.30 0.28 0.26 0.24 0.22 0.21 0.20
0.49 0.41 0.52 0.52 0.55 0.54 0.47 0.48 0.35 0.36 0.24 0.21 0.24 0.26 0.28 0.34 0.36 0.38 0.39 0.39 0.40 0.41 0.40 0.40 0.39 0.40 0.39 0.40 0.42 0.40 0.37 0.35 0.34 0.34 0.33 0.31 0.29 0.27 0.24 0.22 0.19 0.17 0.17 0.16
0.54 0.49 0.47 0.52 0.46 0.45 0.46 0.41 0.42 0.39 0.34 0.25 0.21 0.23 0.35 0.35 0.36 0.36 0.37 0.39 0.39 0.39 0.40 0.41 0.42 0.44 0.45 0.42 0.39 0.38 0.37 0.36 0.34 0.33 0.31 0.27 0.24 0.22 0.21 0.20 0.20 0.19 0.19 0.18
0.55 0.51 0.42 0.45 0.53 0.54 0.49 0.43 0.42 0.32 0.29 0.31 0.27 0.23 0.37 0.37 0.38 0.38 0.38 0.40 0.41 0.42 0.43 0.45 0.46 0.47 0.46 0.44 0.40 0.36 0.35 0.33 0.30 0.24 0.23 0.23 0.23 0.22 0.22 0.21 0.21 0.21 0.19 0.18
0.55 0.47 0.40 0.41 0.47 0.50 0.44 0.44 0.43 0.41 0.36 0.27 0.24 0.24 0.40 0.41 0.40 0.41 0.41 0.41 0.42 0.45 0.46 0.46 0.47 0.47 0.45 0.43 0.37 0.33 0.31 0.28 0.24 0.23 0.23 0.24 0.24 0.23 0.22 0.21 0.21 0.20 0.19 0.19
0.61 0.52 0.44 0.34 0.38 0.43 0.39 0.41 0.43 0.40 0.31 0.31 0.28 0.29 0.37 0.39 0.41 0.42 0.42 0.43 0.44 0.45 0.45 0.45 0.45 0.45 0.44 0.41 0.35 0.32 0.28 0.26 0.24 0.24 0.24 0.25 0.25 0.22 0.21 0.21 0.21 0.20 0.20 0.19
0.62 0.48 0.49 0.47 0.47 0.45 0.41 0.40 0.42 0.39 0.39 0.33 0.33 0.33 0.36 0.39 0.40 0.40 0.43 0.43 0.43 0.42 0.43 0.44 0.43 0.41 0.38 0.33 0.31 0.29 0.27 0.26 0.25 0.25 0.24 0.24 0.22 0.21 0.21 0.21 0.21 0.20 0.20 0.19
0.65 0.51 0.52 0.46 0.49 0.47 0.43 0.44 0.44 0.44 0.43 0.41 0.39 0.34 0.42 0.43 0.44 0.41 0.41 0.42 0.41 0.43 0.42 0.39 0.34 0.30 0.27 0.28 0.26 0.25 0.25 0.25 0.25 0.24 0.24 0.22 0.21 0.21 0.20 0.20 0.20 0.20 0.19 0.19
0.59 0.53 0.47 0.40 0.47 0.46 0.37 0.38 0.42 0.42 0.44 0.42 0.35 0.36 0.42 0.39 0.39 0.41 0.43 0.43 0.38 0.31 0.27 0.25 0.24 0.25 0.22 0.20 0.22 0.23 0.25 0.26 0.25 0.24 0.21 0.21 0.20 0.20 0.20 0.20 0.20 0.19 0.19 0.19
0.56 0.52 0.49 0.37 0.40 0.27 0.35 0.39 0.42 0.39 0.39 0.41 0.40 0.40 0.41 0.40 0.42 0.41 0.36 0.27 0.22 0.21 0.21 0.21 0.19 0.19 0.20 0.21 0.21 0.23 0.24 0.24 0.22 0.21 0.21 0.21 0.21 0.20 0.20 0.20 0.20 0.20 0.19 0.19
0.60 0.52 0.41 0.35 0.32 0.35 0.35 0.35 0.35 0.34 0.32 0.40 0.37 0.37 0.37 0.37 0.33 0.27 0.24 0.23 0.20 0.19 0.18 0.18 0.18 0.19 0.19 0.19 0.20 0.20 0.21 0.21 0.20 0.20 0.20 0.20 0.21 0.20 0.20 0.19 0.19 0.19 0.19 0.19
0.54 0.54 0.43 0.35 0.29 0.25 0.32 0.36 0.38 0.36 0.25 0.32 0.34 0.32 0.29 0.26 0.18 0.15 0.18 0.18 0.17 0.17 0.18 0.18 0.17 0.17 0.17 0.17 0.18 0.18 0.17 0.17 0.17 0.17 0.18 0.19 0.19 0.19 0.18 0.19 0.19 0.20 0.20 0.19
0.40 0.41 0.35 0.34 0.30 0.33 0.40 0.38 0.35 0.25 0.25 0.30 0.27 0.23 0.19 0.14 0.14 0.15 0.15 0.15 0.16 0.17 0.17 0.17 0.17 0.16 0.17 0.18 0.18 0.16 0.17 0.15 0.17 0.18 0.19 0.19 0.19 0.19 0.19 0.19 0.20 0.20 0.20 0.19
0.36 0.35 0.33 0.34 0.28 0.24 0.38 0.34 0.30 0.33 0.31 0.24 0.18 0.16 0.15 0.15 0.15 0.14 0.15 0.15 0.16 0.16 0.16 0.17 0.16 0.17 0.18 0.19 0.18 0.16 0.16 0.17 0.19 0.19 0.19 0.18 0.18 0.19 0.19 0.19 0.19 0.20 0.19 0.18
0.31 0.35 0.32 0.33 0.31 0.37 0.36 0.33 0.30 0.25 0.20 0.18 0.16 0.16 0.15 0.14 0.14 0.15 0.15 0.15 0.15 0.16 0.16 0.17 0.17 0.17 0.18 0.18 0.18 0.18 0.19 0.20 0.21 0.20 0.19 0.18 0.18 0.19 0.20 0.19 0.19 0.18 0.19 0.18
0.34 0.35 0.30 0.29 0.30 0.29 0.28 0.28 0.24 0.20 0.17 0.17 0.16 0.15 0.16 0.15 0.16 0.15 0.15 0.15 0.15 0.15 0.15 0.16 0.16 0.16 0.17 0.19 0.20 0.21 0.21 0.21 0.21 0.20 0.19 0.19 0.19 0.19 0.19 0.18 0.18 0.18 0.18 0.17
0.31 0.30 0.26 0.25 0.25 0.24 0.22 0.20 0.19 0.18 0.18 0.18 0.18 0.18 0.17 0.16 0.15 0.15 0.14 0.14 0.13 0.14 0.15 0.16 0.16 0.17 0.17 0.20 0.20 0.21 0.22 0.22 0.20 0.20 0.19 0.19 0.19 0.18 0.17 0.17 0.18 0.18 0.18 0.17
0.26 0.23 0.20 0.18 0.18 0.15 0.14 0.15 0.17 0.18 0.17 0.19 0.19 0.17 0.17 0.17 0.15 0.14 0.12 0.13 0.14 0.15 0.17 0.17 0.18 0.18 0.18 0.19 0.20 0.21 0.21 0.21 0.20 0.18 0.18 0.18 0.17 0.17 0.16 0.17 0.17 0.18 0.19 0.18
Wind_Speed
17 16 17 19 18 16 14 15 16 15 16 16 19 19 20 18 18 18 17 16 14 13 12 12 12 12 12 12 12 13 13 13 12 13 13 13 14 15 15 15 15 16 16 16
16 21 20 17 18 17 16 17 19 19 19 18 20 22 22 19 19 18 17 17 15 14 13 12 11 11 12 12 12 11 12 12 13 13 13 14 14 14 15 15 16 16 17 17
21 20 16 18 19 18 20 20 20 20 18 19 20 22 20 18 18 18 18 16 14 13 12 12 12 13 13 11 11 11 12 13 13 13 14 14 15 16 17 17 17 17 18 18
24 23 22 22 22 20 23 22 20 19 17 18 15 19 17 14 14 14 13 14 13 13 14 14 14 14 13 13 14 14 15 15 15 16 16 17 18 18 19 19 19 20 20 21
24 21 21 22 23 22 22 18 18 17 17 17 18 17 20 15 16 15 15 15 15 16 16 16 16 15 16 16 16 17 17 17 17 18 19 19 20 21 21 22 22 23 25 26
24 23 22 22 19 19 16 14 14 16 16 18 19 18 19 16 15 13 14 16 16 17 17 17 18 18 18 18 18 20 20 20 21 21 22 22 23 23 24 25 26 28 29 30
22 24 22 20 16 16 17 14 15 16 16 19 17 16 21 17 15 15 16 17 18 18 19 19 20 21 21 21 22 22 22 22 23 24 25 26 26 27 27 29 30 31 32 33
20 20 22 22 21 19 20 19 16 17 17 18 16 19 19 16 17 18 18 17 18 20 21 22 23 23 23 25 25 24 25 25 27 27 28 29 29 30 30 31 32 33 34 35
20 22 19 19 20 19 20 21 19 16 18 18 20 21 21 19 19 18 19 20 21 22 23 25 26 26 27 26 27 26 27 28 30 30 31 31 31 32 33 34 35 36 36 37
23 19 20 20 19 21 21 18 17 18 18 20 21 22 22 21 22 20 20 22 24 25 26 28 28 28 27 27 27 29 31 32 32 33 33 33 34 34 35 36 36 37 37 39
24 22 20 20 24 23 21 22 19 18 20 20 21 22 21 21 20 22 24 25 26 28 29 29 29 28 28 29 30 33 34 35 35 36 36 36 36 36 36 37 37 38 39 40
28 22 23 26 23 24 25 25 23 22 23 23 23 27 23 24 26 26 27 27 28 29 29 29 29 29 30 32 35 37 38 38 38 38 38 37 37 37 37 38 38 39 40 41
27 25 22 23 24 25 27 26 25 24 23 27 24 27 24 26 27 28 29 29 30 29 30 31 32 33 36 38 40 40 40 40 39 39 39 38 38 38 39 39 39 40 41 42
27 29 30 33 26 23 27 28 28 27 26 27 34 35 31 30 30 31 31 31 32 32 33 34 36 38 40 41 41 41 40 40 40 40 39 39 39 39 39 40 40 41 42 43
31 33 32 32 28 28 28 27 29 32 34 32 34 36 31 33 32 33 34 33 34 35 36 37 40 40 42 42 41 40 41 41 41 41 40 40 40 40 40 40 41 42 43 44
33 32 33 33 32 32 34 36 35 36 35 37 37 41 33 34 33 33 34 34 35 37 39 40 39 40 39 39 40 41 42 42 41 41 41 40 40 40 41 42 43 43 44 44
35 33 31 32 31 31 36 42 37 36 36 35 37 41 34 34 34 34 36 37 38 38 38 38 37 36 37 39 40 41 41 40 40 41 41 41 41 42 43 43 44 44 44 44
33 31 31 29 28 33 34 32 33 36 35 34 34 34 32 33 34 35 35 36 37 37 36 36 36 37 38 38 38 38 39 39 40 41 42 43 44 44 44 44 44 44 44 44
31 31 29 29 32 32 32 33 29 30 35 33 34 33 33 32 33 36 36 36 35 34 35 36 36 36 37 37 37 37 37 39 41 43 44 45 44 44 44 43 43 42 42 42
31 32 33 28 30 32 33 30 29 28 35 33 32 33 32 32 34 35 34 33 34 35 35 35 36 36 36 36 36 37 39 41 42 43 43 42 41 41 40 40 40 40 41 41
27 28 31 29 30 33 33 31 29 29 34 31 32 31 31 33 33 31 31 33 34 36 36 35 35 35 36 36 38 39 39 40 40 39 38 38 37 38 38 38 38 39 41 41
28 28 29 29 30 34 31 29 31 32 30 30 30 31 31 32 32 32 33 34 35 36 35 35 36 37 37 38 38 38 38 37 37 36 36 36 36 36 36 37 38 39 41 42
30 31 30 32 32 31 30 29 30 30 30 31 31 32 33 33 34 34 35 36 36 35 36 36 37 37 37 37 37 37 37 36 35 35 34 34 35 36 37 38 39 40 41 42
32 31 32 30 33 32 33 32 32 32 32 33 33 33 33 34 35 36 36 36 36 36 36 36 35 36 37 37 37 37 36 35 35 34 34 35 35 36 37 38 39 41 41 41
30 28 30 31 32 31 34 34 32 33 34 33 34 34 35 35 36 36 36 36 36 35 34 34 34 36 38 37 36 36 35 34 34 35 35 35 36 36 37 39 41 41 41 40
30 31 31 32 32 31 31 31 32 34 35 35 34 34 35 35 35 35 36 35 34 33 34 34 35 36 36 35 34 34 34 33 33 34 34 34 35 37 39 40 42 41 40 40
Wind_Direction
258 255 254 250 253 262 261 264 268 273 274 271 270 271 272 267 269 270 270 273 276 282 283 291 297 302 307 309 309 307 307 303 296 293 292 292 294 296 297 298 297 296 292 289
260 256 257 259 257 259 262 264 270 277 273 271 274 272 273 272 271 268 263 267 270 271 277 285 292 297 302 301 303 305 305 301 296 291 289 288 289 294 295 295 294 294 293 290
252 260 256 253 256 258 261 263 268 269 277 273 280 278 275 275 274 272 267 267 266 263 268 279 286 292 294 296 297 299 304 301 297 294 290 289 288 288 290 292 291 292 292 292
259 261 259 259 259 257 262 262 264 266 271 270 276 281 281 278 271 272 264 259 257 261 268 276 282 285 288 290 291 294 295 294 292 291 289 289 287 287 287 288 288 289 290 291
260 257 258 258 258 255 263 260 256 262 264 274 273 278 278 277 273 264 259 257 259 262 268 273 277 278 284 287 292 293 294 294 291 289 290 289 288 286 286 286 286 288 289 289
260 262 258 256 258 250 246 257 265 268 267 272 267 261 276 274 268 267 258 258 263 267 271 274 273 274 279 282 288 291 290 290 288 288 288 287 286 284 285 285 287 287 288 289
262 256 256 249 248 250 249 249 263 270 268 268 274 266 268 268 271 270 263 262 266 269 271 272 272 273 275 277 285 286 286 286 287 287 288 286 286 285 285 286 286 287 288 288
253 261 237 242 243 245 243 244 252 258 264 272 274 266 277 268 269 274 275 268 272 272 273 275 273 273 275 277 281 284 284 285 285 286 287 287 286 285 285 286 287 288 288 288
249 257 249 247 243 241 247 248 255 264 273 276 269 274 276 273 274 278 276 272 271 273 273 274 274 275 275 276 278 279 282 283 284 285 285 286 286 286 286 287 288 289 289 290
248 251 252 244 244 248 247 246 256 263 269 272 274 275 275 270 269 278 277 273 274 275 275 274 274 274 275 275 276 278 281 282 284 284 285 285 285 285 286 288 288 289 290 291
242 247 252 246 247 242 247 251 258 259 259 265 276 276 274 267 273 275 278 278 277 276 274 275 274 273 273 275 277 279 281 282 283 284 284 284 285 285 287 288 289 290 291 292
238 247 249 250 258 252 250 249 249 254 261 267 269 274 274 279 280 281 282 280 280 278 276 275 274 273 274 276 279 280 281 281 282 283 283 284 285 286 287 288 289 291 292 293
235 247 253 261 257 256 254 251 253 258 265 261 266 276 275 280 280 281 282 280 278 277 277 276 275 274 276 279 280 280 280 280 281 281 282 282 283 284 286 288 289 291 292 293
238 246 245 250 256 254 253 253 252 253 261 266 264 274 275 276 277 280 279 279 278 277 276 277 277 278 278 280 279 279 279 279 280 280 281 281 283 284 286 287 289 292 293 295
245 249 248 255 256 255 256 256 252 253 258 261 273 270 273 272 275 275 277 278 276 277 278 278 280 279 280 280 278 278 279 279 279 279 280 281 282 284 285 287 290 291 293 295
249 251 250 253 255 258 262 261 259 257 262 267 271 273 275 275 278 277 276 274 277 279 280 280 280 281 279 279 279 279 279 278 278 278 279 280 281 283 285 287 289 291 292 294
243 246 249 251 255 259 265 259 255 262 263 264 266 274 275 276 275 274 275 277 279 280 280 280 280 280 280 281 281 280 278 277 277 278 279 280 281 282 284 286 288 290 292 294
240 239 245 253 252 254 264 267 262 259 266 265 271 274 273 275 276 277 278 279 280 280 280 280 280 282 282 283 283 282 280 278 278 278 279 280 281 282 284 285 288 290 291 294
239 239 246 247 251 266 261 262 262 262 269 265 266 273 274 276 279 281 280 280 280 279 280 281 282 283 283 283 283 282 281 280 280 281 281 281 281 282 283 285 287 289 291 294
245 245 246 251 253 255 268 265 263 267 271 269 268 272 273 275 280 282 278 279 280 281 282 282 282 283 283 283 284 284 284 284 283 283 283 282 281 282 283 284 286 288 291 294
243 247 246 251 257 264 263 262 263 266 275 272 273 275 273 277 279 279 280 281 282 282 282 283 282 282 282 285 286 286 286 285 286 285 284 283 282 282 284 285 287 289 292 294
244 244 251 256 261 265 261 264 262 269 273 272 273 272 273 277 278 280 281 283 283 283 282 282 283 283 284 286 287 286 286 287 287 286 284 283 283 283 284 286 288 290 293 294
251 252 256 254 262 269 256 268 266 269 270 271 272 275 276 275 279 280 283 284 284 283 283 284 284 283 284 286 286 287 287 286 286 286 285 284 284 285 286 287 289 292 293 294
255 258 260 262 263 265 261 269 270 269 270 273 275 275 274 277 278 281 284 286 286 285 284 285 284 283 285 286 286 286 286 285 285 286 285 285 285 286 287 289 290 292 294 294
257 257 260 266 266 267 268 267 268 268 270 274 275 274 274 275 279 281 285 286 286 285 284 285 284 285 286 286 284 285 285 284 285 286 285 286 287 288 289 290 292 293 293 292
258 260 261 266 264 267 270 268 267 268 269 271 272 274 276 277 279 282 284 286 285 284 285 285 286 288 287 284 283 283 284 284 286 287 286 287 289 290 291 292 293 292 291 291